Dillon, MT

1:55 AM MDT on March 30, 2017 (GMT -0600)
Dillon

Weather History for KDLN - June, 2013

Change the Weather History Date:

Wednesday, June 19, 2013

  Actual Average Record
Temperature  
Mean Temperature 59 °F 59 °F  
Max Temperature 74 °F 73 °F 96 °F (1988)
Min Temperature 43 °F 45 °F 32 °F (1973)
Degree Days  
Heating Degree Days 6    
Month to date heating degree days 130  
Since 1 June heating degree days 130  
Since 1 July heating degree days 7615  
Cooling Degree Days 0    
Month to date cooling degree days 1  
Year to date cooling degree days 4  
Since 1 June cooling degree days 1  
Growing Degree Days 8 (Base 50)    
Moisture  
Dew Point 42 °F    
Average Humidity 56    
Maximum Humidity 76    
Minimum Humidity 35    
Precipitation  
Precipitation 0.05 in 0.06 in 1.36 in (1975)
Month to date precipitation 1.07 1.43  
Year to date precipitation 4.00 5.50  
Snow  
Snow 0.00 in - - ()
Snow Depth 0.00 in    
Sea Level Pressure  
Sea Level Pressure 29.61 in    
Wind  
Wind Speed 11 mph (SW)    
Max Wind Speed 39 mph    
Max Gust Speed 48 mph    
Visibility 10 miles    
Events Rain , Thunderstorm    
T = Trace of Precipitation, MM = Missing Value Source: NWS Daily Summary

Daily Weather History Graph

Daily Weather History Graph

Search for Another Location

Airport or City:

Trip Planner

Search our weather history database for the weather conditions in past years. The results will help you decide how hot, cold, wet, or windy it might be!

Date:

Astronomy

Jun. 19, 2013 Rise Set
Actual Time 5:42 AM MDT 9:21 PM MDT
Civil Twilight 5:04 AM MDT 9:58 PM MDT
Nautical Twilight 4:14 AM MDT 10:49 PM MDT
Astronomical Twilight 3:06 AM MDT 11:57 PM MDT
Moon 5:11 PM MDT (6/19) 2:38 AM MDT (6/19)
Length of Visible Light 16h 54m
Length of Day
15h 39m
Waxing Gibbous, 81% of the Moon is Illuminated
Jun 19
Waxing Gibbous
Jun 23
Full
Jun 29
Last Quarter
Jul 8
New
Jul 15
First Quarter

Hourly Weather History & Observations

Time (MDT) Temp. Windchill Dew Point Humidity Pressure Visibility Wind Dir Wind Speed Gust Speed Precip Events Conditions
12:53 AM 60.1 °F - 37.0 °F 42% 29.51 in 10.0 mi NW 11.5 mph - N/A   Clear
2:53 AM 57.9 °F - 44.1 °F 60% 29.50 in 10.0 mi NE 6.9 mph - N/A   Clear
3:53 AM 55.9 °F - 44.1 °F 64% 29.48 in 10.0 mi NE 8.1 mph - N/A   Clear
4:53 AM 55.0 °F - 44.1 °F 67% 29.47 in 10.0 mi ENE 5.8 mph - N/A   Clear
5:53 AM 54.0 °F - 44.1 °F 69% 29.47 in 10.0 mi NE 12.7 mph - N/A   Clear
6:53 AM 55.0 °F - 45.0 °F 69% 29.47 in 10.0 mi Calm Calm - N/A   Clear
7:53 AM 55.0 °F - 46.9 °F 74% 29.49 in 10.0 mi Calm Calm - N/A   Clear
8:53 AM 57.9 °F - 46.0 °F 65% 29.50 in 10.0 mi Calm Calm - N/A   Clear
9:53 AM 62.1 °F - 44.1 °F 52% 29.51 in 10.0 mi Calm Calm - N/A   Clear
10:53 AM 66.0 °F - 45.0 °F 47% 29.48 in 10.0 mi Calm Calm - N/A   Clear
11:53 AM 71.1 °F - 45.0 °F 39% 29.47 in 10.0 mi West 4.6 mph - N/A   Clear
12:53 PM 68.0 °F - 45.0 °F 43% 29.48 in 10.0 mi WSW 10.4 mph - N/A   Mostly Cloudy
1:53 PM 72.0 °F - 43.0 °F 35% 29.47 in 10.0 mi SSW 17.3 mph 34.5 mph N/A   Mostly Cloudy
2:53 PM 63.0 °F - 44.1 °F 50% 29.54 in 10.0 mi SW 28.8 mph 38.0 mph N/A   Mostly Cloudy
3:53 PM 57.0 °F - 37.9 °F 49% 29.64 in 9.0 mi WSW 40.3 mph 47.2 mph N/A   Clear
4:53 PM 48.0 °F - 42.1 °F 80% 29.76 in 6.0 mi WSW 24.2 mph 40.3 mph 0.00 in Rain Light Rain
5:53 PM 51.1 °F - 44.1 °F 77% 29.74 in 10.0 mi West 5.8 mph - 0.01 in   Scattered Clouds
6:53 PM 53.1 °F - 45.0 °F 74% 29.73 in 7.0 mi SSW 10.4 mph - 0.00 in Rain Light Rain
7:53 PM 52.0 °F - 39.0 °F 61% 29.75 in 10.0 mi WSW 24.2 mph 34.5 mph 0.01 in   Scattered Clouds
8:53 PM 48.0 °F - 37.9 °F 68% 29.79 in 10.0 mi SSW 15.0 mph - 0.00 in Rain , Thunderstorm Light Rain
9:12 PM 46.4 °F 41.5 °F 37.4 °F 71% 29.89 in 10.0 mi SSW 10.4 mph - 0.00 in   Overcast
9:53 PM 46.0 °F 40.6 °F 36.0 °F 68% 29.80 in 10.0 mi SSW 11.5 mph - 0.03 in Rain Light Rain
10:53 PM 44.1 °F 35.9 °F 37.9 °F 79% 29.81 in 10.0 mi SSW 19.6 mph 25.3 mph 0.00 in   Overcast
11:53 PM 44.1 °F 39.0 °F 37.9 °F 79% 29.80 in 10.0 mi SSW 9.2 mph - N/A   Overcast